Waarnemingen

Advertentie
Mijn weer
Strasbourg, Frankrijk (7190): temperatuur & dauwpunt: 10.08.2018 21:00:00 - 16.08.2018 21:00:00 (CEST)Strasbourg, Frankrijk (7190): temperatuur 5cm: 10.08.2018 21:00:00 - 16.08.2018 21:00:00 (CEST)Strasbourg, Frankrijk (7190): temperatuur -20cm & temperatuur -100cm: 10.08.2018 21:00:00 - 16.08.2018 21:00:00 (CEST)Strasbourg, Frankrijk (7190): windsnelheid & windstoten: 10.08.2018 21:00:00 - 16.08.2018 21:00:00 (CEST)Strasbourg, Frankrijk (7190): windrichting: 10.08.2018 21:00:00 - 16.08.2018 21:00:00 (CEST)Strasbourg, Frankrijk (7190): luchtdruk: 10.08.2018 21:00:00 - 16.08.2018 21:00:00 (CEST)Strasbourg, Frankrijk (7190): zicht: 10.08.2018 21:00:00 - 16.08.2018 21:00:00 (CEST)Strasbourg, Frankrijk (7190): Zonneschijnduur: 10.08.2018 21:00:00 - 16.08.2018 21:00:00 (CEST)Strasbourg, Frankrijk (7190): neerslag: 10.08.2018 21:00:00 - 16.08.2018 21:00:00 (CEST)
Datum & Tijd tt [°C] td [°C] tt 5cm [°C] tt -20cm [°C] tt -100cm [°C] ff [km/u] ff [kn] fx [km/u] fx [kn] dd ppp [hPa] vv [km] sd [min] rr [mm]
16.08.2018 21:00:00 24,9 14,4 21,6 27,5 22,9 3 2 9 5 NO 1012,3 16 6 0,0
16.08.2018 20:00:00 28,7 13,0 29,5 27,4 22,9 8 4 18 10 N 1012,0 60 55 0,0
16.08.2018 19:00:00 31,4 10,1 33,1 27,0 22,9 5 3 13 7 NO 1012,0 51 60 0,0
16.08.2018 18:00:00 31,5 9,7 36,1 26,5 22,9 9 5 16 9 NO 1012,6 48 60 0,0
16.08.2018 17:00:00 32,0 8,3 37,0 25,9 22,9 6 3 20 11 N 1012,9 50 60 0,0
16.08.2018 16:00:00 31,2 10,0 36,8 25,2 22,9 8 4 29 16 Z 1013,5 31 60 0,0
16.08.2018 15:00:00 30,6 12,9 36,4 24,5 22,9 9 5 19 11 Z 1014,1 19 60 0,0
16.08.2018 14:00:00 29,4 13,6 35,5 23,9 22,9 7 4 18 10 ZZO 1014,7 24 60 0,0
16.08.2018 13:00:00 28,0 14,3 33,6 23,3 22,9 6 3 16 9 ZZO 1015,6 39 60 0,0
16.08.2018 12:00:00 25,9 14,4 30,0 23,0 22,9 7 4 15 8 ZZO 1016,3 40 60 0,0
16.08.2018 11:00:00 23,5 14,8 28,2 22,8 22,9 5 3 12 7 ZZW 1017,0 40 60 0,0
16.08.2018 10:00:00 22,1 14,2 27,0 22,8 22,9 3 2 8 4 ZW 1017,4 33 60 0,0
16.08.2018 09:00:00 20,5 14,2 22,2 23,0 22,9 2 1 5 3 Z 1017,9 34 60 0,0
16.08.2018 08:00:00 18,2 14,5 15,4 23,2 22,9 0 0 3 2 N 1018,1 25 60 0,0
16.08.2018 07:00:00 13,9 13,1 11,8 23,5 23,0 0 0 4 2 N 1018,3 21 12 0,0
16.08.2018 06:00:00 13,5 12,2 12,0 23,8 23,0 0 0 4 2 N 1018,3 22 0 0,0
16.08.2018 05:00:00 14,0 12,2 12,0 24,1 23,0 2 1 5 3 ONO 1018,5 26 0 0,0
16.08.2018 04:00:00 14,4 12,4 12,5 24,3 23,0 0 0 4 2 N 1018,8 28 0 0,0
16.08.2018 03:00:00 15,1 13,1 13,4 24,7 23,0 3 1 6 4 WZW 1019,0 35 0 0,0
16.08.2018 02:00:00 15,5 13,5 14,3 24,9 23,0 5 3 8 4 WNW 1019,3 39 0 0,0
16.08.2018 01:00:00 16,7 13,8 14,9 25,2 23,0 4 2 6 3 NW 1019,4 39 0 0,0
16.08.2018 00:00:00 17,7 14,2 15,9 25,5 23,0 6 3 11 6 NW 1019,4 42 0 0,0
15.08.2018 23:00:00 17,8 14,5 17,1 25,7 23,0 9 5 13 7 NNW 1019,4 44 0 0,0
15.08.2018 22:00:00 19,8 14,6 18,3 25,9 23,0 10 5 14 7 N 1019,2 53 0 0,0
15.08.2018 21:00:00 21,5 14,9 20,7 25,9 23,1 9 5 23 12 N 1018,7 58 7 0,0
15.08.2018 20:00:00 24,7 13,9 26,0 25,8 23,1 9 5 27 15 NNO 1018,4 57 49 0,0
15.08.2018 19:00:00 26,4 14,2 27,5 25,5 23,1 9 5 20 11 NNO 1018,3 44 46 0,0
15.08.2018 18:00:00 26,6 14,0 28,8 25,2 23,1 7 4 18 10 O 1018,5 44 37 0,0
15.08.2018 17:00:00 26,5 14,3 28,3 24,8 23,1 4 2 21 11 ONO 1018,8 46 17 0,0
15.08.2018 16:00:00 26,7 14,8 29,1 24,3 23,1 6 3 20 11 ONO 1019,1 50 19 0,0
15.08.2018 15:00:00 26,3 15,0 27,0 23,9 23,1 6 3 19 11 O 1019,7 21 20 0,0
15.08.2018 14:00:00 25,3 14,4 28,2 23,4 23,1 6 4 17 9 W 1019,8 38 31 0,0
15.08.2018 13:00:00 24,3 14,4 25,0 23,0 23,1 5 3 13 7 ZO 1020,4 45 17 0,0
15.08.2018 12:00:00 24,3 15,8 27,8 22,6 23,1 5 3 18 10 ZW 1020,6 43 36 0,0
15.08.2018 11:00:00 23,1 15,9 22,5 22,5 23,1 7 4 14 8 Z 1020,8 20 41 0,0
15.08.2018 10:00:00 19,8 15,4 21,2 22,4 23,1 4 2 9 5 ZZO 1021,0 35 4 0,0
15.08.2018 09:00:00 18,0 15,3 17,7 22,5 23,1 2 1 6 3 NW 1021,0 21 3 0,0
15.08.2018 08:00:00 16,1 14,1 15,0 22,7 23,1 4 2 7 4 Z 1020,8 15 32 0,0
15.08.2018 07:00:00 13,8 12,9 12,0 23,0 23,2 2 1 7 4 Z 1020,6 20 10 0,0
15.08.2018 06:00:00 13,4 12,3 12,4 23,3 23,2 3 2 6 4 WZW 1020,6 20 0 0,0
15.08.2018 05:00:00 13,5 12,4 12,0 23,6 23,2 5 3 8 4 Z 1020,6 14 0 0,0
15.08.2018 04:00:00 14,1 12,7 12,5 23,9 23,2 4 2 9 5 ZZW 1020,4 19 0 0,0
15.08.2018 03:00:00 14,7 13,1 13,5 24,1 23,2 3 2 11 6 ZW 1020,0 28 0 0,0
15.08.2018 02:00:00 15,0 13,0 13,3 24,5 23,2 5 3 8 4 ZZW 1020,2 25 0 0,0
15.08.2018 01:00:00 15,6 13,3 13,9 24,7 23,2 3 2 6 3 Z 1020,0 39 0 0,0
15.08.2018 00:00:00 16,2 13,3 14,5 25,0 23,2 0 0 9 5 N 1019,6 40 0 0,0
14.08.2018 23:00:00 17,9 13,8 15,3 25,3 23,3 4 2 11 6 W 1019,3 56 0 0,0
14.08.2018 22:00:00 18,9 13,7 17,6 25,4 23,2 4 2 9 5 W 1018,9 58 0 0,0
14.08.2018 21:00:00 20,7 14,1 19,7 25,6 23,3 6 3 16 9 NW 1018,4 20 18 0,0
14.08.2018 20:00:00 22,8 14,9 23,1 25,6 23,3 8 5 24 13 N 1017,7 56 6 0,0
14.08.2018 19:00:00 23,3 14,6 24,2 25,5 23,3 16 9 27 14 N 1017,1 51 0 0,0
14.08.2018 18:00:00 23,8 13,9 25,1 25,3 23,3 19 10 35 19 NNW 1016,8 55 8 0,0
14.08.2018 17:00:00 25,4 12,9 27,0 24,9 23,3 16 9 30 16 NW 1016,2 55 29 0,0
14.08.2018 16:00:00 25,4 12,3 28,3 24,4 23,3 16 9 40 22 NW 1016,1 43 28 0,0
14.08.2018 15:00:00 25,6 12,1 29,1 23,9 23,3 8 4 24 13 ZZW 1016,0 57 50 0,0
14.08.2018 14:00:00 24,9 13,1 25,3 23,5 23,3 12 7 31 17 W 1016,1 57 25 0,0
14.08.2018 13:00:00 23,6 12,6 24,7 23,1 23,3 13 7 30 16 WNW 1016,1 60 38 0,0
14.08.2018 12:00:00 23,5 12,8 23,1 22,9 23,4 18 10 35 19 NW 1016,2 47 42 0,0
14.08.2018 11:00:00 21,2 14,6 23,0 22,7 23,3 9 5 26 14 NNW 1016,2 59 13 0,0
14.08.2018 10:00:00 22,0 14,4 25,8 22,7 23,4 9 5 19 10 ZZW 1016,0 40 60 0,0
14.08.2018 09:00:00 20,3 15,1 21,2 22,7 23,3 2 1 8 4 OZO 1015,6 55 33 0,0
14.08.2018 08:00:00 17,8 15,2 15,6 22,9 23,3 4 2 5 3 ONO 1015,3 37 10 0,0
14.08.2018 07:00:00 15,7 14,7 14,4 23,1 23,3 5 3 8 4 NNO 1014,9 51 0 0,0
14.08.2018 06:00:00 15,7 14,9 14,5 23,3 23,4 3 1 8 5 OZO 1014,3 60 0 0,0
14.08.2018 05:00:00 15,4 14,4 13,7 23,6 23,4 4 2 10 5 Z 1014,0 60 0 0,0
14.08.2018 04:00:00 15,3 13,8 13,7 23,8 23,4 8 5 12 6 ZW 1013,7 60 0 0,0
14.08.2018 03:00:00 16,8 15,3 15,7 24,0 23,4 8 5 13 7 ZW 1013,4 60 0 0,0
14.08.2018 02:00:00 17,5 15,8 16,2 24,3 23,4 6 4 22 12 ZW 1013,5 60 0 0,2
14.08.2018 01:00:00 17,8 14,5 16,3 24,5 23,4 7 4 13 7 ZW 1013,1 60 0 0,0
14.08.2018 00:00:00 18,7 14,4 17,8 24,7 23,4 13 7 20 11 ZW 1012,4 60 0 0,0
13.08.2018 23:00:00 19,3 15,6 18,1 24,9 23,4 13 7 22 12 ZZW 1011,9 60 0 0,0
13.08.2018 22:00:00 19,9 16,7 18,7 25,1 23,4 6 4 13 7 Z 1011,5 60 0 0,0
13.08.2018 21:00:00 20,9 17,5 19,2 25,1 23,4 9 5 18 10 W 1010,5 60 2 0,2
13.08.2018 20:00:00 23,3 16,1 23,3 25,2 23,4 13 7 23 13 WZW 1009,6 60 12 0,0
13.08.2018 19:00:00 24,2 14,9 24,2 25,1 23,4 17 9 33 18 W 1009,4 60 1 0,0
13.08.2018 18:00:00 24,9 15,2 25,7 24,9 23,4 20 11 32 17 WZW 1009,5 50 10 0,0
13.08.2018 17:00:00 25,7 16,5 24,6 24,7 23,4 21 11 35 19 ZW 1009,3 55 23 0,0
13.08.2018 16:00:00 24,0 16,5 23,5 24,4 23,4 15 8 25 13 ZW 1010,1 51 26 0,0
13.08.2018 15:00:00 21,7 17,1 20,5 24,4 23,4 16 9 29 16 W 1010,7 52 4 0,0
13.08.2018 14:00:00 20,1 18,6 19,5 24,3 23,5 11 6 23 12 WZW 1011,4 3,8 0 1,6
13.08.2018 13:00:00 20,2 18,5 20,0 24,3 23,4 12 7 29 16 Z 1011,4 20 0 0,2
13.08.2018 12:00:00 19,9 18,6 18,7 24,4 23,4 16 9 26 14 Z 1011,6 29 0 0,6
13.08.2018 11:00:00 19,1 17,6 18,2 24,5 23,5 15 8 32 17 Z 1011,8 9 0 1,2
13.08.2018 10:00:00 19,7 17,7 18,5 24,7 23,5 10 5 22 12 Z 1011,4 14 0 0,8
13.08.2018 09:00:00 20,7 16,5 18,2 24,8 23,5 7 4 35 19 ZZO 1010,9 13 0 0,8
13.08.2018 08:00:00 22,5 14,1 19,6 25,0 23,5 26 14 46 25 WZW 1010,5 59 0 0,0
13.08.2018 07:00:00 19,5 12,5 15,9 25,3 23,5 19 11 31 17 Z 1008,7 47 14 0,0
13.08.2018 06:00:00 17,2 11,9 14,5 25,6 23,5 11 6 24 13 Z 1008,4 60 0 0,0
13.08.2018 05:00:00 16,0 12,2 14,5 25,9 23,5 8 4 19 10 ZZW 1009,3 58 0 0,0
13.08.2018 04:00:00 16,3 11,9 14,2 26,2 23,5 4 2 8 4 Z 1009,4 60 0 0,0
13.08.2018 03:00:00 16,8 11,9 14,2 26,5 23,5 3 2 8 4 ZZW 1010,0 60 0 0,0
13.08.2018 02:00:00 17,0 11,5 14,4 26,9 23,5 6 3 9 5 ZW 1010,6 60 0 0,0
13.08.2018 01:00:00 17,3 12,0 16,1 27,2 23,5 4 2 10 5 W 1011,0 60 0 0,0
13.08.2018 00:00:00 19,4 11,7 15,2 27,5 23,5 8 4 11 6 Z 1011,2 60 0 0,0
12.08.2018 23:00:00 19,5 11,8 16,6 27,7 23,5 0 0 15 8 N 1011,1 60 0 0,0
12.08.2018 22:00:00 21,8 12,4 19,9 27,9 23,6 5 3 10 6 WNW 1011,0 60 0 0,0
12.08.2018 21:00:00 24,9 12,1 23,1 27,9 23,6 4 2 9 5 WNW 1010,7 59 24 0,0
12.08.2018 20:00:00 28,9 10,1 31,1 27,7 23,6 7 4 19 10 Z 1010,3 49 60 0,0
12.08.2018 19:00:00 30,2 9,1 33,5 27,4 23,6 11 6 24 13 Z 1010,7 53 60 0,0
12.08.2018 18:00:00 30,2 9,7 35,7 26,9 23,6 13 7 26 14 ZZO 1011,4 50 60 0,0
12.08.2018 17:00:00 30,1 10,1 35,5 26,3 23,6 12 6 30 16 ZO 1012,3 57 60 0,0
12.08.2018 16:00:00 29,6 10,2 35,6 25,6 23,6 11 6 30 16 ZZW 1013,2 39 60 0,0
12.08.2018 15:00:00 28,6 9,3 34,9 24,9 23,6 13 7 28 15 ZZO 1014,2 55 60 0,0
12.08.2018 14:00:00 27,6 10,3 33,7 24,2 23,6 8 4 23 12 Z 1015,0 19 60 0,0
12.08.2018 13:00:00 26,4 9,3 32,6 23,7 23,6 8 5 19 10 Z 1016,0 59 60 0,0
12.08.2018 12:00:00 24,8 9,5 30,0 23,4 23,6 8 4 22 12 ZZO 1016,9 60 60 0,0
12.08.2018 11:00:00 23,2 9,2 26,9 23,3 23,6 8 4 16 9 Z 1017,5 42 60 0,0
12.08.2018 10:00:00 20,8 10,3 24,9 23,3 23,6 4 2 11 6 NNO 1018,0 56 60 0,0
12.08.2018 09:00:00 18,0 10,1 20,2 23,5 23,7 5 3 9 5 NNW 1018,6 60 60 0,0
12.08.2018 08:00:00 14,3 9,9 13,8 23,8 23,7 4 2 9 5 N 1019,1 55 60 0,0
12.08.2018 07:00:00 11,0 8,7 7,9 24,1 23,7 3 2 5 3 ONO 1019,7 54 17 0,0
12.08.2018 06:00:00 10,2 8,5 8,3 24,4 23,7 4 2 6 3 NNO 1019,8 59 0 0,0
12.08.2018 05:00:00 10,7 8,8 8,9 24,8 23,7 4 2 6 3 NNW 1020,3 60 0 0,0
12.08.2018 04:00:00 10,9 8,8 9,2 25,1 23,7 0 0 4 2 N 1020,9 60 0 0,0
12.08.2018 03:00:00 12,3 9,1 9,6 25,5 23,7 2 1 5 3 ZW 1021,4 60 0 0,0
12.08.2018 02:00:00 13,0 9,6 11,3 25,8 23,7 0 0 5 3 N 1021,6 60 0 0,0
12.08.2018 01:00:00 13,7 9,3 11,2 26,1 23,7 4 2 11 6 ONO 1022,1 60 0 0,0
12.08.2018 00:00:00 15,2 9,8 12,9 26,5 23,7 4 2 12 7 WNW 1022,2 60 0 0,0
11.08.2018 23:00:00 14,8 10,0 14,1 26,7 23,7 8 4 10 5 NW 1022,3 60 0 0,0
11.08.2018 22:00:00 18,7 9,5 16,2 26,9 23,8 3 2 18 10 N 1022,2 60 0 0,0
11.08.2018 21:00:00 21,0 8,6 18,8 27,0 23,8 9 5 16 8 N 1021,7 60 26 0,0
11.08.2018 20:00:00 23,4 8,3 23,7 26,9 23,8 10 6 25 14 N 1021,4 35 51 0,0
11.08.2018 19:00:00 25,0 8,0 27,5 26,8 23,8 13 7 28 15 N 1021,4 58 52 0,0
11.08.2018 18:00:00 25,2 8,2 27,1 26,5 23,8 12 6 29 16 NNW 1021,4 58 28 0,0
11.08.2018 17:00:00 24,8 8,7 27,3 26,1 23,8 15 8 31 17 NW 1021,8 58 5 0,0
11.08.2018 16:00:00 26,0 9,8 27,3 25,6 23,8 13 7 32 17 NW 1022,3 60 38 0,0
11.08.2018 15:00:00 24,2 9,4 26,3 25,1 23,8 13 7 48 26 WNW 1022,7 43 28 0,0
11.08.2018 14:00:00 25,1 9,4 24,9 24,7 23,8 18 10 36 19 W 1023,0 28 44 0,0
11.08.2018 13:00:00 23,9 10,6 24,3 24,3 23,8 13 7 25 13 NW 1023,8 60 23 0,0
11.08.2018 12:00:00 23,0 10,4 24,0 24,1 23,8 13 7 32 17 ZW 1024,1 48 20 0,0
11.08.2018 11:00:00 23,2 10,3 27,2 24,1 23,8 15 8 25 13 ZW 1024,3 49 60 0,0
11.08.2018 10:00:00 20,5 10,6 19,5 24,1 23,8 13 7 22 12 Z 1024,7 42 24 0,0
11.08.2018 09:00:00 17,8 9,9 16,1 24,3 23,8 14 7 18 10 ZZW 1024,9 60 26 0,0
11.08.2018 08:00:00 15,4 10,2 15,0 24,6 23,8 7 4 10 5 Z 1024,8 60 2 0,0
11.08.2018 07:00:00 14,4 10,2 11,5 24,8 23,9 7 4 10 5 ZW 1024,7 60 11 0,0
11.08.2018 06:00:00 13,8 9,6 12,1 25,1 23,9 4 2 10 5 Z 1024,3 60 0 0,0
11.08.2018 05:00:00 13,8 9,8 12,0 25,5 23,9 6 3 9 5 ZZW 1024,0 60 0 0,0
11.08.2018 04:00:00 13,4 9,4 11,9 25,8 23,9 5 3 9 5 ZZW 1024,0 60 0 0,0
11.08.2018 03:00:00 13,9 9,3 11,8 26,1 23,9 6 3 10 5 ZW 1023,9 60 0 0,0
11.08.2018 02:00:00 15,1 10,1 13,3 26,5 23,9 0 0 10 5 N 1023,8 60 0 0,0
11.08.2018 01:00:00 15,6 9,9 13,3 26,8 23,9 7 4 10 5 NW 1023,9 60 0 0,0
11.08.2018 00:00:00 17,5 9,6 15,6 27,1 23,9 6 3 15 8 NW 1023,6 60 0 0,0
10.08.2018 23:00:00 17,6 10,0 16,3 27,4 23,9 9 5 15 8 NW 1023,2 60 0 0,0
10.08.2018 22:00:00 19,2 9,7 18,1 27,6 23,9 12 6 18 10 NW 1023,0 60 0 0,0
10.08.2018 21:00:00 20,9 10,1 19,9 27,6 23,9 10 6 16 8 WNW 1022,5 60 0 0,0

tt = temperatuur
td = dauwpunt
tt 5cm = temperatuur 5cm
tt -20cm = temperatuur -20cm
tt -100cm = temperatuur -100cm
ff = windsnelheid
fx = windstoten
dd = windrichting
ppp = luchtdruk
vv = zicht
sd = Zonneschijnduur
rr = neerslag

Weerstations in de omgeving